Time,TemperatureF,DewpointF,PressureIn,WindDirection,WindDirectionDegrees,WindSpeedMPH,WindSpeedGustMPH,Humidity,HourlyPrecipIn,Conditions,Clouds,dailyrainin,SoftwareType,DateUTC
2013-05-04 00:00:00,63.2,58.3,29.22,ENE,68,3.0,6.0,84,0.00,,---,0.00,VWS V14.00,2013-05-04 04:00:00,
2013-05-04 00:01:00,63.0,58.1,29.22,ENE,65,4.0,6.0,84,0.00,,---,0.16,VWS V14.00,2013-05-04 04:01:00,
2013-05-04 00:04:00,63.1,58.2,29.22,ENE,64,4.0,6.0,84,0.00,,---,0.16,VWS V14.00,2013-05-04 04:04:00,
2013-05-04 00:05:00,63.1,58.2,29.22,ENE,65,6.0,6.0,84,0.00,,---,0.16,VWS V14.00,2013-05-04 04:05:00,
2013-05-04 00:10:00,63.2,58.0,29.22,ENE,76,3.0,5.0,83,0.00,,---,0.00,VWS V14.00,2013-05-04 04:10:00,
2013-05-04 00:15:00,63.2,58.0,29.22,East,99,3.0,6.0,83,0.00,,---,0.00,VWS V14.00,2013-05-04 04:15:00,
2013-05-04 00:20:00,63.2,58.0,29.22,East,99,4.0,6.0,83,0.00,,---,0.00,VWS V14.00,2013-05-04 04:20:00,
2013-05-04 00:25:00,63.2,58.0,29.22,ENE,68,5.0,6.0,83,0.00,,---,0.00,VWS V14.00,2013-05-04 04:25:00,
2013-05-04 00:30:00,63.5,57.9,29.22,East,84,4.0,7.0,82,0.00,,---,0.00,VWS V14.00,2013-05-04 04:30:00,
2013-05-04 00:35:00,63.9,58.0,29.22,East,97,8.0,8.0,81,0.00,,---,0.00,VWS V14.00,2013-05-04 04:35:00,
2013-05-04 00:40:00,64.2,57.9,29.22,East,94,7.0,10.0,80,0.00,,---,0.00,VWS V14.00,2013-05-04 04:40:00,
2013-05-04 00:45:00,64.3,58.0,29.22,ESE,103,7.0,10.0,80,0.00,,---,0.00,VWS V14.00,2013-05-04 04:45:00,
2013-05-04 00:50:00,64.3,57.7,29.22,ESE,107,6.0,10.0,79,0.00,,---,0.00,VWS V14.00,2013-05-04 04:50:00,
2013-05-04 00:56:00,64.2,57.9,29.22,ESE,111,5.0,10.0,80,0.00,,---,0.01,VWS V14.00,2013-05-04 04:56:00,
2013-05-04 01:00:00,64.3,57.3,29.22,SE,136,12.0,12.0,78,0.00,,---,0.01,VWS V14.00,2013-05-04 05:00:00,
2013-05-04 01:01:00,64.0,57.4,29.22,ESE,119,5.0,11.0,79,0.00,,---,0.01,VWS V14.00,2013-05-04 05:01:00,
2013-05-04 01:06:00,64.3,57.3,29.22,SE,128,10.0,11.0,78,0.00,,---,0.01,VWS V14.00,2013-05-04 05:06:00,
2013-05-04 01:11:00,64.5,57.8,29.22,ESE,113,9.0,12.0,79,0.00,,---,0.01,VWS V14.00,2013-05-04 05:11:00,
2013-05-04 01:16:00,64.3,57.7,29.22,ESE,103,5.0,12.0,79,0.00,,---,0.01,VWS V14.00,2013-05-04 05:16:00,
2013-05-04 01:21:00,63.7,57.4,29.22,ESE,111,4.0,12.0,80,0.00,,---,0.01,VWS V14.00,2013-05-04 05:21:00,
2013-05-04 01:26:00,63.6,57.3,29.22,ESE,115,4.0,12.0,80,0.00,,---,0.01,VWS V14.00,2013-05-04 05:26:00,
2013-05-04 01:30:00,63.6,57.7,27.11,ESE,111,5.0,12.0,81,0.00,,---,0.01,VWS V14.00,2013-05-04 05:30:00,
2013-05-04 01:31:00,63.5,57.6,27.11,ESE,120,4.0,12.0,81,0.00,,---,0.01,VWS V14.00,2013-05-04 05:31:00,
2013-05-04 01:36:00,63.6,57.7,27.11,ESE,111,5.0,12.0,81,0.00,,---,0.01,VWS V14.00,2013-05-04 05:36:00,
2013-05-04 01:41:00,63.6,57.3,27.11,ESE,113,7.0,7.0,80,0.00,,---,0.01,VWS V14.00,2013-05-04 05:41:00,
2013-05-04 01:46:00,63.6,57.3,27.11,ESE,121,6.0,7.0,80,0.00,,---,0.01,VWS V14.00,2013-05-04 05:46:00,
2013-05-04 01:51:00,63.7,57.4,27.11,SE,126,7.0,9.0,80,0.00,,---,0.01,VWS V14.00,2013-05-04 05:51:00,
2013-05-04 01:56:00,63.8,57.5,26.33,ESE,103,4.0,9.0,80,0.00,,---,0.01,VWS V14.00,2013-05-04 05:56:00,
2013-05-04 02:00:00,63.6,57.3,26.33,ESE,110,4.0,9.0,80,0.00,,---,0.01,VWS V14.00,2013-05-04 06:00:00,
2013-05-04 02:02:00,63.6,57.3,26.33,ESE,107,6.0,9.0,80,0.00,,---,0.01,VWS V14.00,2013-05-04 06:02:00,
2013-05-04 02:07:00,63.6,57.3,26.33,ESE,111,4.0,5.0,80,0.00,,---,0.01,VWS V14.00,2013-05-04 06:07:00,
2013-05-04 02:12:00,63.5,57.2,26.33,ESE,117,4.0,7.0,80,0.00,,---,0.01,VWS V14.00,2013-05-04 06:12:00,
2013-05-04 02:17:00,63.5,57.2,26.33,ESE,106,6.0,7.0,80,0.00,,---,0.01,VWS V14.00,2013-05-04 06:17:00,
2013-05-04 02:22:00,63.5,57.2,26.33,ESE,111,6.0,7.0,80,0.00,,---,0.01,VWS V14.00,2013-05-04 06:22:00,
2013-05-04 02:27:00,63.6,57.0,26.33,East,95,6.0,7.0,79,0.00,,---,0.01,VWS V14.00,2013-05-04 06:27:00,
2013-05-04 02:30:00,63.9,57.3,26.33,East,97,5.0,8.0,79,0.00,,---,0.01,VWS V14.00,2013-05-04 06:30:00,
2013-05-04 02:32:00,63.8,57.2,26.33,ESE,105,6.0,7.0,79,0.00,,---,0.01,VWS V14.00,2013-05-04 06:32:00,
2013-05-04 02:37:00,63.9,57.3,26.33,East,95,4.0,6.0,79,0.00,,---,0.01,VWS V14.00,2013-05-04 06:37:00,
2013-05-04 02:42:00,63.9,56.9,26.33,East,92,5.0,7.0,78,0.00,,---,0.01,VWS V14.00,2013-05-04 06:42:00,
2013-05-04 02:47:00,63.9,56.9,26.33,East,99,6.0,7.0,78,0.00,,---,0.01,VWS V14.00,2013-05-04 06:47:00,
2013-05-04 02:53:00,63.8,56.8,26.33,East,92,5.0,7.0,78,0.00,,---,0.01,VWS V14.00,2013-05-04 06:53:00,
2013-05-04 02:58:00,63.8,57.2,26.33,East,101,7.0,7.0,79,0.00,,---,0.01,VWS V14.00,2013-05-04 06:58:00,
2013-05-04 03:00:00,63.6,57.3,26.33,East,97,4.0,7.0,80,0.00,,---,0.01,VWS V14.00,2013-05-04 07:00:00,
2013-05-04 03:03:00,63.6,57.0,26.33,East,101,5.0,7.0,79,0.00,,---,0.01,VWS V14.00,2013-05-04 07:03:00,
2013-05-04 03:08:00,63.6,57.3,26.33,East,98,2.0,5.0,80,0.00,,---,0.01,VWS V14.00,2013-05-04 07:08:00,
2013-05-04 03:13:00,63.6,57.3,26.33,East,83,4.0,6.0,80,0.00,,---,0.01,VWS V14.00,2013-05-04 07:13:00,
2013-05-04 03:18:00,63.6,57.0,26.33,East,92,2.0,6.0,79,0.00,,---,0.01,VWS V14.00,2013-05-04 07:18:00,
2013-05-04 03:23:00,63.7,56.7,26.33,East,90,3.0,7.0,78,0.00,,---,0.01,VWS V14.00,2013-05-04 07:23:00,
2013-05-04 03:28:00,63.7,56.4,26.33,East,79,4.0,7.0,77,0.00,,---,0.01,VWS V14.00,2013-05-04 07:28:00,
2013-05-04 03:30:00,63.6,55.9,26.33,East,88,4.0,7.0,76,0.00,,---,0.01,VWS V14.00,2013-05-04 07:30:00,
2013-05-04 03:33:00,63.6,56.3,26.33,ENE,78,6.0,7.0,77,0.00,,---,0.01,VWS V14.00,2013-05-04 07:33:00,
2013-05-04 03:38:00,63.6,55.5,26.33,East,82,5.0,5.0,75,0.00,,---,0.01,VWS V14.00,2013-05-04 07:38:00,
2013-05-04 03:43:00,63.5,55.4,26.33,ENE,78,4.0,6.0,75,0.00,,---,0.01,VWS V14.00,2013-05-04 07:43:00,
2013-05-04 03:48:00,63.4,55.0,26.33,East,92,4.0,6.0,74,0.00,,---,0.01,VWS V14.00,2013-05-04 07:48:00,
2013-05-04 03:53:00,63.3,54.9,26.33,East,92,5.0,6.0,74,0.00,,---,0.01,VWS V14.00,2013-05-04 07:53:00,
2013-05-04 03:58:00,63.2,54.4,26.33,East,83,4.0,7.0,73,0.00,,---,0.01,VWS V14.00,2013-05-04 07:58:00,
2013-05-04 04:00:00,63.1,54.7,26.33,East,83,4.0,9.0,74,0.00,,---,0.01,VWS V14.00,2013-05-04 08:00:00,
2013-05-04 04:03:00,63.1,54.7,26.33,East,82,5.0,9.0,74,0.00,,---,0.01,VWS V14.00,2013-05-04 08:03:00,
2013-05-04 04:08:00,63.1,54.3,26.33,East,83,6.0,8.0,73,0.00,,---,0.01,VWS V14.00,2013-05-04 08:08:00,
2013-05-04 04:13:00,63.0,54.2,26.33,East,87,5.0,9.0,73,0.00,,---,0.01,VWS V14.00,2013-05-04 08:13:00,
2013-05-04 04:18:00,62.9,53.4,26.33,East,83,7.0,9.0,71,0.00,,---,0.01,VWS V14.00,2013-05-04 08:18:00,
2013-05-04 04:23:00,62.9,53.0,26.33,East,94,7.0,10.0,70,0.00,,---,0.01,VWS V14.00,2013-05-04 08:23:00,
2013-05-04 04:29:00,62.8,52.9,26.33,East,80,7.0,10.0,70,0.00,,---,0.01,VWS V14.00,2013-05-04 08:29:00,
2013-05-04 04:30:00,62.6,52.7,26.33,East,86,7.0,10.0,70,0.00,,---,0.01,VWS V14.00,2013-05-04 08:30:00,
2013-05-04 04:34:00,62.7,52.8,26.33,East,87,4.0,10.0,70,0.00,,---,0.01,VWS V14.00,2013-05-04 08:34:00,
2013-05-04 04:39:00,62.6,52.7,26.33,ENE,71,5.0,7.0,70,0.00,,---,0.01,VWS V14.00,2013-05-04 08:39:00,
2013-05-04 04:44:00,62.7,52.0,26.33,ENE,78,6.0,8.0,68,0.00,,---,0.01,VWS V14.00,2013-05-04 08:44:00,
2013-05-04 04:49:00,62.8,52.5,26.33,East,86,6.0,9.0,69,0.00,,---,0.01,VWS V14.00,2013-05-04 08:49:00,
2013-05-04 04:54:00,62.7,52.0,26.33,ENE,76,8.0,10.0,68,0.00,,---,0.01,VWS V14.00,2013-05-04 08:54:00,
2013-05-04 04:59:00,62.5,51.8,26.33,ENE,78,5.0,10.0,68,0.00,,---,0.01,VWS V14.00,2013-05-04 08:59:00,
2013-05-04 05:00:00,62.5,50.6,26.33,ENE,78,7.0,13.0,65,0.00,,---,0.01,VWS V14.00,2013-05-04 09:00:00,
2013-05-04 05:04:00,62.6,51.5,26.33,ENE,75,10.0,10.0,67,0.00,,---,0.01,VWS V14.00,2013-05-04 09:04:00,
2013-05-04 05:09:00,62.6,50.7,26.33,ENE,75,6.0,11.0,65,0.00,,---,0.01,VWS V14.00,2013-05-04 09:09:00,
2013-05-04 05:14:00,62.6,49.8,26.33,ENE,74,10.0,13.0,63,0.00,,---,0.01,VWS V14.00,2013-05-04 09:14:00,
2013-05-04 05:19:00,62.7,50.4,26.33,East,86,8.0,13.0,64,0.00,,---,0.01,VWS V14.00,2013-05-04 09:19:00,
2013-05-04 05:24:00,62.9,50.5,26.33,East,80,6.0,13.0,64,0.00,,---,0.01,VWS V14.00,2013-05-04 09:24:00,
2013-05-04 05:29:00,62.8,49.6,26.33,East,90,6.0,13.0,62,0.00,,---,0.01,VWS V14.00,2013-05-04 09:29:00,
2013-05-04 05:30:00,62.6,49.4,26.33,East,88,6.0,12.0,62,0.00,,---,0.01,VWS V14.00,2013-05-04 09:30:00,
2013-05-04 05:34:00,62.8,49.6,26.33,East,86,10.0,13.0,62,0.00,,---,0.01,VWS V14.00,2013-05-04 09:34:00,
2013-05-04 05:39:00,62.8,49.6,26.33,East,95,8.0,11.0,62,0.00,,---,0.01,VWS V14.00,2013-05-04 09:39:00,
2013-05-04 05:44:00,62.7,49.5,26.33,ESE,115,8.0,11.0,62,0.00,,---,0.01,VWS V14.00,2013-05-04 09:44:00,
2013-05-04 05:49:00,62.7,49.5,26.33,East,94,6.0,12.0,62,0.00,,---,0.01,VWS V14.00,2013-05-04 09:49:00,
2013-05-04 05:54:00,62.7,49.1,26.33,East,89,7.0,12.0,61,0.00,,---,0.01,VWS V14.00,2013-05-04 09:54:00,
2013-05-04 05:59:00,62.6,49.4,26.33,East,100,7.0,12.0,62,0.00,,---,0.01,VWS V14.00,2013-05-04 09:59:00,
2013-05-04 06:00:00,62.6,49.4,26.33,East,88,6.0,12.0,62,0.00,,---,0.01,VWS V14.00,2013-05-04 10:00:00,
2013-05-04 06:04:00,62.6,48.1,26.33,East,83,6.0,12.0,59,0.00,,---,0.01,VWS V14.00,2013-05-04 10:04:00,
2013-05-04 06:10:00,62.6,49.4,26.33,East,84,9.0,11.0,62,0.00,,---,0.01,VWS V14.00,2013-05-04 10:10:00,
2013-05-04 06:15:00,62.5,48.4,26.11,East,92,9.0,11.0,60,0.00,,---,0.01,VWS V14.00,2013-05-04 10:15:00,
2013-05-04 06:20:00,62.5,48.4,26.11,East,92,9.0,11.0,60,0.00,,---,0.01,VWS V14.00,2013-05-04 10:20:00,
2013-05-04 06:25:00,62.5,48.4,26.11,East,90,10.0,11.0,60,0.00,,---,0.01,VWS V14.00,2013-05-04 10:25:00,
2013-05-04 06:30:00,62.6,49.0,26.11,East,92,8.0,11.0,61,0.00,,---,0.01,VWS V14.00,2013-05-04 10:30:00,
2013-05-04 06:35:00,62.5,48.4,26.11,ESE,103,6.0,11.0,60,0.00,,---,0.01,VWS V14.00,2013-05-04 10:35:00,
2013-05-04 06:40:00,62.4,47.9,26.11,ESE,119,6.0,11.0,59,0.00,,---,0.01,VWS V14.00,2013-05-04 10:40:00,
2013-05-04 06:45:00,62.3,49.1,26.11,ESE,113,5.0,11.0,62,0.00,,---,0.01,VWS V14.00,2013-05-04 10:45:00,
2013-05-04 06:50:00,62.3,49.1,26.11,ESE,102,8.0,11.0,62,0.00,,---,0.01,VWS V14.00,2013-05-04 10:50:00,
2013-05-04 06:55:00,62.1,47.6,26.11,East,95,6.0,11.0,59,0.00,,---,0.01,VWS V14.00,2013-05-04 10:55:00,
2013-05-04 07:00:00,62.2,49.0,26.11,East,98,4.0,11.0,62,0.00,,---,0.01,VWS V14.00,2013-05-04 11:00:00,
2013-05-04 07:05:00,62.1,48.1,26.11,East,92,3.0,11.0,60,0.00,,---,0.01,VWS V14.00,2013-05-04 11:05:00,
2013-05-04 07:10:00,62.0,48.0,26.11,East,80,4.0,9.0,60,0.00,,---,0.01,VWS V14.00,2013-05-04 11:10:00,
2013-05-04 07:15:00,61.8,47.3,26.11,ENE,76,9.0,10.0,59,0.00,,---,0.01,VWS V14.00,2013-05-04 11:15:00,
2013-05-04 07:20:00,61.7,47.7,26.11,ENE,64,10.0,11.0,60,0.00,,---,0.01,VWS V14.00,2013-05-04 11:20:00,
2013-05-04 07:25:00,61.6,47.6,26.11,ENE,64,7.0,12.0,60,0.00,,---,0.01,VWS V14.00,2013-05-04 11:25:00,
2013-05-04 07:30:00,61.6,47.2,26.11,ENE,76,9.0,12.0,59,0.00,,---,0.01,VWS V14.00,2013-05-04 11:30:00,
2013-05-04 07:35:00,61.5,46.6,26.11,ENE,76,6.0,12.0,58,0.00,,---,0.01,VWS V14.00,2013-05-04 11:35:00,
2013-05-04 07:40:00,61.5,48.4,26.11,East,84,6.0,10.0,62,0.00,,---,0.01,VWS V14.00,2013-05-04 11:40:00,
2013-05-04 07:46:00,61.4,47.4,26.11,ENE,60,11.0,12.0,60,0.00,,---,0.01,VWS V14.00,2013-05-04 11:46:00,
2013-05-04 07:51:00,61.3,46.9,26.11,East,82,5.0,12.0,59,0.00,,---,0.01,VWS V14.00,2013-05-04 11:51:00,
2013-05-04 07:56:00,61.3,47.3,26.11,East,79,9.0,14.0,60,0.00,,---,0.01,VWS V14.00,2013-05-04 11:56:00,
2013-05-04 08:00:00,61.3,47.8,26.11,East,87,6.0,14.0,61,0.00,,---,0.01,VWS V14.00,2013-05-04 12:00:00,
2013-05-04 08:02:00,61.3,47.8,26.11,ENE,71,10.0,14.0,61,0.00,,---,0.01,VWS V14.00,2013-05-04 12:02:00,
2013-05-04 08:07:00,61.3,47.3,26.11,ENE,77,7.0,9.0,60,0.00,,---,0.01,VWS V14.00,2013-05-04 12:07:00,
2013-05-04 08:12:00,61.3,47.8,26.11,ESE,104,9.0,11.0,61,0.00,,---,0.01,VWS V14.00,2013-05-04 12:12:00,
2013-05-04 08:17:00,61.3,47.3,26.11,NE,51,8.0,13.0,60,0.00,,---,0.01,VWS V14.00,2013-05-04 12:17:00,
2013-05-04 08:23:00,61.3,48.2,26.11,ENE,71,7.0,13.0,62,0.00,,---,0.01,VWS V14.00,2013-05-04 12:23:00,
2013-05-04 08:28:00,61.3,48.2,26.11,ENE,71,6.0,13.0,62,0.00,,---,0.01,VWS V14.00,2013-05-04 12:28:00,
2013-05-04 08:30:00,61.1,47.6,26.11,ENE,69,5.0,13.0,61,0.00,,---,0.01,VWS V14.00,2013-05-04 12:30:00,
2013-05-04 08:33:00,61.2,47.7,26.11,East,91,6.0,13.0,61,0.00,,---,0.01,VWS V14.00,2013-05-04 12:33:00,
2013-05-04 08:38:00,61.1,48.0,26.11,ENE,67,9.0,14.0,62,0.00,,---,0.01,VWS V14.00,2013-05-04 12:38:00,
2013-05-04 08:44:00,61.1,48.8,26.11,ENE,74,4.0,14.0,64,0.00,,---,0.01,VWS V14.00,2013-05-04 12:44:00,
2013-05-04 08:49:00,61.2,49.3,26.11,ENE,68,5.0,14.0,65,0.00,,---,0.01,VWS V14.00,2013-05-04 12:49:00,
2013-05-04 08:54:00,61.2,48.9,26.11,ENE,65,7.0,14.0,64,0.00,,---,0.01,VWS V14.00,2013-05-04 12:54:00,
2013-05-04 08:59:00,61.2,48.1,26.11,ENE,78,9.0,14.0,62,0.00,,---,0.01,VWS V14.00,2013-05-04 12:59:00,
2013-05-04 09:00:00,61.3,48.2,26.11,ENE,78,3.0,16.0,62,0.00,,---,0.01,VWS V14.00,2013-05-04 13:00:00,
2013-05-04 09:04:00,61.3,49.0,26.11,East,82,6.0,16.0,64,0.00,,---,0.01,VWS V14.00,2013-05-04 13:04:00,
2013-05-04 09:05:00,61.3,48.2,26.11,ENE,71,7.0,16.0,62,0.00,,---,0.01,VWS V14.00,2013-05-04 13:05:00,
2013-05-04 09:10:00,61.4,48.7,26.11,ENE,74,8.0,9.0,63,0.00,,---,0.01,VWS V14.00,2013-05-04 13:10:00,
2013-05-04 09:15:00,61.5,48.8,26.11,ENE,61,7.0,12.0,63,0.00,,---,0.01,VWS V14.00,2013-05-04 13:15:00,
2013-05-04 09:20:00,61.6,48.5,26.11,NE,49,5.0,12.0,62,0.00,,---,0.01,VWS V14.00,2013-05-04 13:20:00,
2013-05-04 09:25:00,61.8,49.1,26.11,ESE,103,5.0,12.0,63,0.00,,---,0.01,VWS V14.00,2013-05-04 13:25:00,
2013-05-04 09:30:00,61.8,48.7,26.11,East,99,5.0,12.0,62,0.00,,---,0.01,VWS V14.00,2013-05-04 13:30:00,
2013-05-04 09:35:00,61.9,49.6,26.11,ENE,63,4.0,12.0,64,0.00,,---,0.01,VWS V14.00,2013-05-04 13:35:00,
2013-05-04 09:40:00,61.9,49.2,26.11,East,90,4.0,7.0,63,0.00,,---,0.01,VWS V14.00,2013-05-04 13:40:00,
2013-05-04 09:45:00,61.9,50.0,26.11,East,81,7.0,13.0,65,0.00,,---,0.01,VWS V14.00,2013-05-04 13:45:00,
2013-05-04 09:51:00,62.0,49.3,26.11,ENE,76,3.0,13.0,63,0.00,,---,0.01,VWS V14.00,2013-05-04 13:51:00,
2013-05-04 09:56:00,62.1,48.5,26.11,East,84,8.0,13.0,61,0.00,,---,0.01,VWS V14.00,2013-05-04 13:56:00,
2013-05-04 10:00:00,62.1,48.9,26.11,ESE,106,6.0,13.0,62,0.00,,---,0.01,VWS V14.00,2013-05-04 14:00:00,
2013-05-04 10:01:00,62.0,48.8,26.11,ENE,75,3.0,13.0,62,0.00,,---,0.01,VWS V14.00,2013-05-04 14:01:00,
2013-05-04 10:06:00,62.1,48.5,26.11,East,99,7.0,13.0,61,0.00,,---,0.01,VWS V14.00,2013-05-04 14:06:00,
2013-05-04 10:11:00,62.3,49.6,26.11,East,90,6.0,14.0,63,0.00,,---,0.01,VWS V14.00,2013-05-04 14:11:00,
2013-05-04 10:16:00,62.4,50.1,26.11,ESE,111,5.0,14.0,64,0.00,,---,0.01,VWS V14.00,2013-05-04 14:16:00,
2013-05-04 10:21:00,62.5,50.2,26.11,East,80,3.0,14.0,64,0.00,,---,0.01,VWS V14.00,2013-05-04 14:21:00,
2013-05-04 10:26:00,62.6,48.5,26.11,ESE,112,7.0,14.0,60,0.00,,---,0.01,VWS V14.00,2013-05-04 14:26:00,
2013-05-04 10:30:00,62.6,48.5,26.11,East,83,9.0,18.0,60,0.00,,---,0.01,VWS V14.00,2013-05-04 14:30:00,
2013-05-04 10:31:00,62.6,49.4,26.11,East,86,9.0,14.0,62,0.00,,---,0.01,VWS V14.00,2013-05-04 14:31:00,
2013-05-04 10:36:00,62.6,48.5,26.11,East,87,9.0,18.0,60,0.00,,---,0.01,VWS V14.00,2013-05-04 14:36:00,
2013-05-04 10:41:00,62.7,49.9,26.11,ESE,110,11.0,15.0,63,0.00,,---,0.01,VWS V14.00,2013-05-04 14:41:00,
2013-05-04 10:46:00,62.7,49.1,26.11,ESE,111,11.0,16.0,61,0.00,,---,0.01,VWS V14.00,2013-05-04 14:46:00,
2013-05-04 10:51:00,62.7,48.2,26.11,East,95,17.0,18.0,59,0.00,,---,0.01,VWS V14.00,2013-05-04 14:51:00,
2013-05-04 10:56:00,62.7,48.6,26.11,ESE,121,13.0,18.0,60,0.00,,---,0.01,VWS V14.00,2013-05-04 14:56:00,
2013-05-04 11:00:00,62.7,50.4,26.11,East,100,5.0,18.0,64,0.00,,---,0.01,VWS V14.00,2013-05-04 15:00:00,
2013-05-04 11:01:00,62.8,50.9,26.11,ESE,113,4.0,18.0,65,0.00,,---,0.01,VWS V14.00,2013-05-04 15:01:00,
2013-05-04 11:06:00,62.7,50.4,26.11,SE,130,5.0,7.0,64,0.00,,---,0.01,VWS V14.00,2013-05-04 15:06:00,
2013-05-04 11:11:00,62.3,49.6,26.11,ESE,118,4.0,11.0,63,0.00,,---,0.01,VWS V14.00,2013-05-04 15:11:00,
2013-05-04 11:16:00,60.9,49.5,26.11,ESE,117,10.0,12.0,66,0.00,,---,0.02,VWS V14.00,2013-05-04 15:16:00,
2013-05-04 11:22:00,60.3,49.7,26.11,SE,132,8.0,13.0,68,0.00,,---,0.02,VWS V14.00,2013-05-04 15:22:00,
2013-05-04 11:27:00,59.8,50.0,26.11,ESE,113,10.0,14.0,70,0.00,,---,0.02,VWS V14.00,2013-05-04 15:27:00,
2013-05-04 11:30:00,59.4,50.0,26.11,ENE,76,5.0,14.0,71,0.00,,---,0.02,VWS V14.00,2013-05-04 15:30:00,
2013-05-04 11:32:00,59.6,49.8,26.11,East,101,7.0,14.0,70,0.00,,---,0.02,VWS V14.00,2013-05-04 15:32:00,
2013-05-04 11:37:00,59.4,50.0,26.11,ENE,64,2.0,6.0,71,0.00,,---,0.02,VWS V14.00,2013-05-04 15:37:00,
2013-05-04 11:42:00,59.8,50.4,26.11,East,88,5.0,11.0,71,0.00,,---,0.02,VWS V14.00,2013-05-04 15:42:00,
2013-05-04 11:47:00,59.7,50.7,26.11,SE,124,4.0,11.0,72,0.00,,---,0.02,VWS V14.00,2013-05-04 15:47:00,
2013-05-04 11:52:00,59.6,50.6,26.11,East,98,4.0,11.0,72,0.00,,---,0.03,VWS V14.00,2013-05-04 15:52:00,
2013-05-04 11:57:00,59.4,50.4,28.01,East,82,3.0,11.0,72,0.00,,---,0.03,VWS V14.00,2013-05-04 15:57:00,
2013-05-04 12:00:00,59.1,50.5,28.01,ESE,106,2.0,11.0,73,0.00,,---,0.03,VWS V14.00,2013-05-04 16:00:00,
2013-05-04 12:02:00,59.2,50.2,28.01,East,101,3.0,11.0,72,0.00,,---,0.03,VWS V14.00,2013-05-04 16:02:00,
2013-05-04 12:07:00,59.1,50.5,28.01,ESE,106,3.0,5.0,73,0.00,,---,0.03,VWS V14.00,2013-05-04 16:07:00,
2013-05-04 12:13:00,59.3,50.7,28.01,ESE,116,2.0,5.0,73,0.00,,---,0.03,VWS V14.00,2013-05-04 16:13:00,
2013-05-04 12:18:00,59.4,51.1,28.01,SE,146,2.0,5.0,74,0.00,,---,0.03,VWS V14.00,2013-05-04 16:18:00,
2013-05-04 12:23:00,59.5,51.6,28.01,ESE,121,4.0,10.0,75,0.00,,---,0.03,VWS V14.00,2013-05-04 16:23:00,
2013-05-04 12:28:00,59.4,51.5,28.01,ESE,102,3.0,10.0,75,0.00,,---,0.03,VWS V14.00,2013-05-04 16:28:00,
2013-05-04 12:30:00,59.5,51.2,28.01,ESE,122,7.0,11.0,74,0.00,,---,0.03,VWS V14.00,2013-05-04 16:30:00,
2013-05-04 12:33:00,59.5,51.6,28.01,East,98,11.0,11.0,75,0.00,,---,0.03,VWS V14.00,2013-05-04 16:33:00,
2013-05-04 12:38:00,59.5,51.2,28.01,ESE,119,6.0,7.0,74,0.00,,---,0.03,VWS V14.00,2013-05-04 16:38:00,
2013-05-04 12:43:00,59.8,51.9,28.01,ESE,105,6.0,10.0,75,0.00,,---,0.03,VWS V14.00,2013-05-04 16:43:00,
2013-05-04 12:48:00,60.0,52.4,28.01,East,89,4.0,10.0,76,0.00,,---,0.03,VWS V14.00,2013-05-04 16:48:00,
2013-05-04 12:53:00,59.9,51.6,27.76,ESE,111,5.0,10.0,74,0.00,,---,0.03,VWS V14.00,2013-05-04 16:53:00,
2013-05-04 12:58:00,59.9,52.0,27.76,East,86,6.0,10.0,75,0.00,,---,0.03,VWS V14.00,2013-05-04 16:58:00,
2013-05-04 13:00:00,59.7,51.8,27.76,ENE,67,7.0,11.0,75,0.00,,---,0.03,VWS V14.00,2013-05-04 17:00:00,
2013-05-04 13:03:00,59.7,51.8,27.76,East,82,4.0,10.0,75,0.00,,---,0.03,VWS V14.00,2013-05-04 17:03:00,
2013-05-04 13:08:00,59.7,51.4,27.76,ENE,75,7.0,11.0,74,0.00,,---,0.03,VWS V14.00,2013-05-04 17:08:00,
2013-05-04 13:13:00,59.6,51.7,27.17,East,84,5.0,11.0,75,0.00,,---,0.03,VWS V14.00,2013-05-04 17:13:00,
2013-05-04 13:18:00,59.6,51.3,27.17,East,88,9.0,11.0,74,0.00,,---,0.03,VWS V14.00,2013-05-04 17:18:00,
2013-05-04 13:23:00,59.5,52.3,27.17,ENE,71,5.0,11.0,77,0.00,,---,0.03,VWS V14.00,2013-05-04 17:23:00,
2013-05-04 13:28:00,59.2,51.7,27.17,East,83,6.0,11.0,76,0.00,,---,0.03,VWS V14.00,2013-05-04 17:28:00,
2013-05-04 13:30:00,59.0,51.8,27.17,ENE,65,6.0,11.0,77,0.00,,---,0.03,VWS V14.00,2013-05-04 17:30:00,
2013-05-04 13:33:00,59.1,51.5,27.17,NE,52,6.0,11.0,76,0.00,,---,0.03,VWS V14.00,2013-05-04 17:33:00,
2013-05-04 13:39:00,59.0,52.2,27.97,East,84,4.0,7.0,78,0.00,,---,0.03,VWS V14.00,2013-05-04 17:39:00,
2013-05-04 13:44:00,59.0,52.2,27.97,East,92,4.0,7.0,78,0.00,,---,0.04,VWS V14.00,2013-05-04 17:44:00,
2013-05-04 13:49:00,59.0,52.8,27.87,East,80,4.0,7.0,80,0.00,,---,0.04,VWS V14.00,2013-05-04 17:49:00,
2013-05-04 13:54:00,58.6,52.5,27.87,East,96,3.0,7.0,80,0.06,,---,0.05,VWS V14.00,2013-05-04 17:54:00,
2013-05-04 13:59:00,58.2,52.1,27.87,East,98,3.0,7.0,80,0.06,,---,0.05,VWS V14.00,2013-05-04 17:59:00,
2013-05-04 14:00:00,58.0,52.2,27.87,ESE,108,3.0,7.0,81,0.10,,---,0.07,VWS V14.00,2013-05-04 18:00:00,
2013-05-04 14:04:00,58.1,52.0,27.87,ESE,107,3.0,7.0,80,0.07,,---,0.06,VWS V14.00,2013-05-04 18:04:00,
2013-05-04 14:09:00,58.0,51.9,27.87,SE,135,5.0,6.0,80,0.10,,---,0.07,VWS V14.00,2013-05-04 18:09:00,
2013-05-04 14:30:00,57.5,51.7,28.50,ESE,119,5.0,10.0,81,0.07,,---,0.10,VWS V14.00,2013-05-04 18:30:00,
2013-05-04 15:00:00,57.6,52.5,28.50,East,92,12.0,13.0,83,0.00,,---,0.12,VWS V14.00,2013-05-04 19:00:00,
2013-05-04 15:30:00,56.4,51.6,28.86,ESE,110,6.0,13.0,84,0.00,,---,0.12,VWS V14.00,2013-05-04 19:30:00,
2013-05-04 16:00:00,56.5,52.0,29.08,SSE,150,3.0,11.0,85,0.00,,---,0.13,VWS V14.00,2013-05-04 20:00:00,
2013-05-04 16:30:00,56.9,52.8,28.10,SSE,150,3.0,10.0,86,0.00,,---,0.14,VWS V14.00,2013-05-04 20:30:00,
2013-05-04 17:00:00,56.8,52.3,29.07,South,169,0.0,7.0,85,0.00,,---,0.15,VWS V14.00,2013-05-04 21:00:00,
2013-05-04 17:30:00,56.1,51.7,29.20,South,183,5.0,10.0,85,0.00,,---,0.17,VWS V14.00,2013-05-04 21:30:00,
2013-05-04 18:00:00,55.5,51.4,29.02,SSE,165,4.0,8.0,86,0.00,,---,0.17,VWS V14.00,2013-05-04 22:00:00,
2013-05-04 18:30:00,55.2,51.4,29.75,South,183,2.0,9.0,87,0.06,,---,0.19,VWS V14.00,2013-05-04 22:30:00,
2013-05-04 19:00:00,55.0,51.2,29.53,South,187,1.0,5.0,87,0.00,,---,0.20,VWS V14.00,2013-05-04 23:00:00,
2013-05-04 19:30:00,54.6,50.8,29.31,SW,216,0.0,4.0,87,0.00,,---,0.21,VWS V14.00,2013-05-04 23:30:00,
2013-05-04 20:00:00,54.6,51.1,29.24,SW,215,2.0,3.0,88,0.00,,---,0.21,VWS V14.00,2013-05-05 00:00:00,
2013-05-04 20:30:00,54.5,51.0,29.34,SW,217,0.0,3.0,88,0.00,,---,0.21,VWS V14.00,2013-05-05 00:30:00,
2013-05-04 21:00:00,54.6,51.4,29.20,SW,217,1.0,3.0,89,0.00,,---,0.21,VWS V14.00,2013-05-05 01:00:00,
2013-05-04 21:30:00,54.5,51.3,29.05,SW,217,0.0,3.0,89,0.04,,---,0.24,VWS V14.00,2013-05-05 01:30:00,
2013-05-04 22:00:00,54.3,51.4,29.65,SW,217,0.0,3.0,90,0.00,,---,0.24,VWS V14.00,2013-05-05 02:00:00,
2013-05-04 22:30:00,54.5,51.6,29.04,NNW,341,0.0,5.0,90,0.10,,---,0.28,VWS V14.00,2013-05-05 02:30:00,
2013-05-04 23:00:00,54.9,51.7,29.14,East,84,0.0,6.0,89,0.12,,---,0.33,VWS V14.00,2013-05-05 03:00:00,
2013-05-04 23:30:00,55.2,51.4,29.10,ENE,62,4.0,5.0,87,0.06,,---,0.36,VWS V14.00,2013-05-05 03:30:00,